Darstellungsparameter: Aktuell verwendete Einstellungen:
Skalierung der Graphiken ... ?
xyx+y,   Skalierungsfaktor:      Skalierung: Modus: x, Faktor: 1
Darstellungszeitraum ... ?
Vom - - bis: - -   Zeitraum: 25.03.2010 - 25.03.2010
Min/Max/Avg-Anzeige ... ?
Zeige MMA aktuell
Zeige MMA Monat
Zeige MMA alles
Zeige --A aktuell
Zeige --A Monat
Zeige --A alles
Keine MMA-Anzeige
MMA:
Keine MMA-Graphiken
MMA-Basis: 25.03.2010 - 25.03.2010
Quicknavigation für Darstellung... ?
Tage:      1T, 2T, 3T, 5T -1T -2T -3T -5T +1T +2T +3T +5T
Wochen: 1W, 2W, 3W -1W -2W -3W +1W +2W +3W
Monate: 1M, 3M, 6M -1M -3M -6M +1M +3M +6M
Jahre:    1J, 3J, 5J, 10J -1J -3J -5J -10J +1J +3J +5J +10J
Nutze für die Darstellung ... ?
Originaldaten oder Mittelwerte auf ...
Stundenbasis Tagesbasis Wochenbasis
Monatsbasis Jahresbasis      Datenbasis: Original-Daten
Darstellen als:
Statistik (Auto) Statistik J:M      Darstellung:
Zur Graphik,    zurück zur Übersicht aller Sensoren.
 
Tabellarische Datenbersicht: ?
 
Sensor: Nr:Datum:Temp:Abs-Feuchte:Windchill:Wind:
Aussen-T/F 1 25-03-2010 00:07:02 10.6 C 6.25 g/m*3 10.6 C 0 km/h
2 25-03-2010 00:19:02 10.5 C 6.21 g/m*3 10.5 C 0 km/h
3 25-03-2010 00:31:02 10.4 C 6.07 g/m*3 10.4 C 0 km/h
4 25-03-2010 00:43:02 10.1 C 6.05 g/m*3 10.1 C 0 km/h
5 25-03-2010 00:55:01 9.7 C 6.08 g/m*3 9.7 C 0 km/h
6 25-03-2010 01:07:02 9.4 C 6.06 g/m*3 9.4 C 0 km/h
7 25-03-2010 01:19:01 9.3 C 6.11 g/m*3 9.3 C 0 km/h
8 25-03-2010 01:31:01 9.2 C 6.16 g/m*3 9.2 C 0 km/h
9 25-03-2010 01:43:01 9 C 6.08 g/m*3 9 C 0 km/h
10 25-03-2010 01:55:01 8.9 C 6.13 g/m*3 8.9 C 0 km/h
11 25-03-2010 02:07:02 8.9 C 6.22 g/m*3 8.9 C 0 km/h
12 25-03-2010 02:19:02 8.8 C 6.18 g/m*3 8.8 C 0 km/h
13 25-03-2010 02:31:01 8.6 C 6.19 g/m*3 8.6 C 0 km/h
14 25-03-2010 02:43:01 8.7 C 6.23 g/m*3 8.7 C 0 km/h
15 25-03-2010 02:55:01 8.6 C 6.27 g/m*3 8.6 C 0 km/h
16 25-03-2010 03:07:01 8.7 C 6.31 g/m*3 8.7 C 0 km/h
17 25-03-2010 03:19:01 8.6 C 6.27 g/m*3 8.6 C 0 km/h
18 25-03-2010 03:31:01 8.4 C 6.28 g/m*3 8.4 C 0 km/h
19 25-03-2010 03:43:01 8.1 C 6.16 g/m*3 8.1 C 0 km/h
20 25-03-2010 03:55:01 7.9 C 6.24 g/m*3 7.9 C 0 km/h
21 25-03-2010 04:07:02 7.7 C 6.24 g/m*3 7.7 C 0 km/h
22 25-03-2010 04:19:01 7.6 C 6.28 g/m*3 7.6 C 0 km/h
23 25-03-2010 04:31:01 7.7 C 6.32 g/m*3 7.7 C 0 km/h
24 25-03-2010 04:43:01 7.9 C 6.49 g/m*3 7.9 C 0 km/h
25 25-03-2010 04:55:01 7.8 C 6.45 g/m*3 7.8 C 0 km/h
Sensor: Nr:Datum:Temp:Abs-Feuchte:Windchill:Wind:
Aussen-T/F 26 25-03-2010 05:07:01 7.6 C 6.44 g/m*3 7.6 C 0 km/h
27 25-03-2010 05:19:01 7.5 C 6.4 g/m*3 7.5 C 0 km/h
28 25-03-2010 05:31:01 7.3 C 6.4 g/m*3 7.3 C 0 km/h
29 25-03-2010 05:43:01 7.2 C 6.36 g/m*3 7.2 C 0 km/h
30 25-03-2010 05:55:01 7.2 C 6.36 g/m*3 7.2 C 0 km/h
31 25-03-2010 06:07:01 7.3 C 6.48 g/m*3 7.3 C 0 km/h
32 25-03-2010 06:19:02 7.4 C 6.44 g/m*3 7.4 C 0 km/h
33 25-03-2010 06:31:01 7.4 C 6.44 g/m*3 7.4 C 0 km/h
34 25-03-2010 06:43:01 7.5 C 6.48 g/m*3 7.5 C 0 km/h
35 25-03-2010 06:55:01 7.6 C 6.53 g/m*3 7.6 C 0 km/h
36 25-03-2010 07:07:01 7.8 C 6.53 g/m*3 7.8 C 0 km/h
37 25-03-2010 07:19:02 7.9 C 6.57 g/m*3 7.9 C 0 km/h
38 25-03-2010 07:31:01 7.6 C 6.61 g/m*3 7.6 C 0 km/h
39 25-03-2010 07:43:01 7.9 C 6.9 g/m*3 7.9 C 0 km/h
40 25-03-2010 07:55:02 8.2 C 6.95 g/m*3 8.2 C 0 km/h
41 25-03-2010 08:07:01 8.2 C 6.87 g/m*3 8.2 C 0 km/h
42 25-03-2010 08:19:02 8.1 C 6.82 g/m*3 8.1 C 0 km/h
43 25-03-2010 08:31:01 8.2 C 6.95 g/m*3 8.2 C 0 km/h
44 25-03-2010 08:43:01 8.4 C 7.04 g/m*3 8.4 C 0 km/h
45 25-03-2010 08:55:02 8.8 C 7.22 g/m*3 8.8 C 0 km/h
46 25-03-2010 09:07:01 9.5 C 7.46 g/m*3 9.5 C 0 km/h
47 25-03-2010 09:19:01 10.4 C 7.61 g/m*3 10.4 C 0 km/h
48 25-03-2010 09:31:02 11 C 7.31 g/m*3 11 C 0 km/h
49 25-03-2010 09:43:02 11.5 C 7.33 g/m*3 11.5 C 0 km/h
50 25-03-2010 09:55:02 11.9 C 7.31 g/m*3 11.9 C 0 km/h
Sensor: Nr:Datum:Temp:Abs-Feuchte:Windchill:Wind:
Aussen-T/F 51 25-03-2010 10:07:01 12.4 C 7.21 g/m*3 12.4 C 0 km/h
52 25-03-2010 10:19:01 12.6 C 7.08 g/m*3 12.6 C 0 km/h
53 25-03-2010 10:31:02 13.1 C 7.3 g/m*3 13.1 C 0 km/h
54 25-03-2010 10:43:02 14.1 C 7.4 g/m*3 14.1 C 0 km/h
55 25-03-2010 10:55:01 14.7 C 7.05 g/m*3 14.7 C 0 km/h
56 25-03-2010 11:07:02 15.7 C 6.69 g/m*3 15.7 C 0 km/h
57 25-03-2010 11:19:01 16.8 C 6.43 g/m*3 16.8 C 0 km/h
58 25-03-2010 11:31:02 17.9 C 5.95 g/m*3 17.9 C 0 km/h
59 25-03-2010 11:43:02 18.5 C 5.85 g/m*3 18.5 C 0 km/h
60 25-03-2010 11:55:01 18.8 C 5.64 g/m*3 18.8 C 0 km/h
61 25-03-2010 12:07:02 19.5 C 5.2 g/m*3 19.5 C 0 km/h
62 25-03-2010 12:19:01 19.3 C 4.64 g/m*3 19.3 C 0 km/h
63 25-03-2010 12:31:01 20.2 C 4.55 g/m*3 20.2 C 0 km/h
64 25-03-2010 12:43:01 21 C 4.4 g/m*3 21 C 0 km/h
65 25-03-2010 12:55:01 21.6 C 4.55 g/m*3 21.6 C 0 km/h
66 25-03-2010 13:07:02 22 C 4.27 g/m*3 22 C 0 km/h
67 25-03-2010 13:19:01 22.2 C 3.93 g/m*3 22.2 C 0 km/h
68 25-03-2010 13:31:01 22.8 C 4.06 g/m*3 22.8 C 0 km/h
69 25-03-2010 13:43:01 22.7 C 4.04 g/m*3 22.7 C 0 km/h
70 25-03-2010 13:55:01 23.2 C 4.16 g/m*3 23.2 C 0 km/h
71 25-03-2010 14:07:01 22.8 C 4.06 g/m*3 22.8 C 0 km/h
72 25-03-2010 14:19:02 22.9 C 4.09 g/m*3 22.9 C 0 km/h
73 25-03-2010 14:31:01 23.3 C 4.18 g/m*3 23.3 C 0 km/h
74 25-03-2010 14:43:01 23.8 C 4.3 g/m*3 23.8 C 0 km/h
75 25-03-2010 14:55:01 23.7 C 4.28 g/m*3 23.7 C 0 km/h
Sensor: Nr:Datum:Temp:Abs-Feuchte:Windchill:Wind:
Aussen-T/F 76 25-03-2010 15:07:01 23.2 C 4.16 g/m*3 23.2 C 0 km/h
77 25-03-2010 15:19:02 22.8 C 4.06 g/m*3 22.8 C 0 km/h
78 25-03-2010 15:31:01 23.4 C 4.21 g/m*3 23.4 C 0 km/h
79 25-03-2010 15:43:01 23.6 C 4.25 g/m*3 23.6 C 0 km/h
80 25-03-2010 15:55:02 23.7 C 4.28 g/m*3 23.7 C 0 km/h
81 25-03-2010 16:07:01 23.6 C 4.25 g/m*3 23.6 C 0 km/h
82 25-03-2010 16:19:02 24.1 C 4.38 g/m*3 24.1 C 0 km/h
83 25-03-2010 16:31:01 23.6 C 4.25 g/m*3 23.6 C 0 km/h
84 25-03-2010 16:43:01 22.8 C 4.06 g/m*3 22.8 C 0 km/h
85 25-03-2010 16:55:02 21.9 C 4.44 g/m*3 21.9 C 0 km/h
86 25-03-2010 17:07:01 21.5 C 4.71 g/m*3 21.5 C 0 km/h
87 25-03-2010 17:19:01 20.9 C 4.55 g/m*3 20.9 C 0 km/h
88 25-03-2010 17:31:01 20.7 C 4.68 g/m*3 20.7 C 0 km/h
89 25-03-2010 17:43:01 20 C 5.01 g/m*3 20 C 0 km/h
90 25-03-2010 17:55:01 19.5 C 5.37 g/m*3 19.5 C 0 km/h
91 25-03-2010 18:07:02 19.6 C 5.23 g/m*3 19.6 C 0 km/h
92 25-03-2010 18:19:02 19.5 C 5.87 g/m*3 19.5 C 0 km/h
93 25-03-2010 18:31:01 19.3 C 5.31 g/m*3 19.3 C 0 km/h
94 25-03-2010 18:43:01 18.7 C 5.6 g/m*3 18.7 C 0 km/h
95 25-03-2010 18:55:02 18.5 C 5.85 g/m*3 18.5 C 0 km/h
96 25-03-2010 19:07:01 18.3 C 5.79 g/m*3 18.3 C 0 km/h
97 25-03-2010 19:19:02 17.8 C 5.62 g/m*3 17.8 C 0 km/h
98 25-03-2010 19:31:01 17.2 C 5.86 g/m*3 17.2 C 0 km/h
99 25-03-2010 19:43:01 16.8 C 5.86 g/m*3 16.8 C 0 km/h
100 25-03-2010 19:55:02 16.4 C 5.72 g/m*3 16.4 C 0 km/h
Sensor: Nr:Datum:Temp:Abs-Feuchte:Windchill:Wind:
Aussen-T/F 101 25-03-2010 20:07:01 16.1 C 5.76 g/m*3 16.1 C 0 km/h
102 25-03-2010 20:19:01 15.8 C 5.79 g/m*3 15.8 C 0 km/h
103 25-03-2010 20:31:02 15.4 C 5.91 g/m*3 15.4 C 0 km/h
104 25-03-2010 20:43:02 15.2 C 5.97 g/m*3 15.2 C 0 km/h
105 25-03-2010 20:55:02 15 C 5.9 g/m*3 15 C 0 km/h
106 25-03-2010 21:07:01 14.9 C 5.99 g/m*3 14.9 C 0 km/h
107 25-03-2010 21:19:01 14.7 C 6.04 g/m*3 14.7 C 0 km/h
108 25-03-2010 21:31:02 14.5 C 6.09 g/m*3 14.5 C 0 km/h
109 25-03-2010 21:43:02 14.1 C 6.07 g/m*3 14.1 C 0 km/h
110 25-03-2010 21:55:01 13.8 C 6.2 g/m*3 13.8 C 0 km/h
111 25-03-2010 22:07:02 13.6 C 6.24 g/m*3 13.6 C 0 km/h
112 25-03-2010 22:19:01 13.4 C 6.28 g/m*3 13.4 C 0 km/h
113 25-03-2010 22:31:01 13.1 C 6.39 g/m*3 13.1 C 0 km/h
114 25-03-2010 22:43:01 13 C 6.35 g/m*3 13 C 0 km/h
115 25-03-2010 22:55:01 13 C 6.24 g/m*3 13 C 0 km/h
116 25-03-2010 23:07:02 13 C 6.46 g/m*3 13 C 0 km/h
117 25-03-2010 23:19:01 12.6 C 6.31 g/m*3 12.6 C 0 km/h
118 25-03-2010 23:31:02 12.7 C 6.57 g/m*3 12.7 C 0 km/h
119 25-03-2010 23:43:02 12.6 C 6.53 g/m*3 12.6 C 0 km/h
120 25-03-2010 23:55:01 12.5 C 6.6 g/m*3 12.5 C 0 km/h

Legende:
   Min
   Max


Maximal/Minimal-Werte vom 25.03.2010 - 25.03.2010

Sensor Min Max Avg
Temp
(Aussen-T/F)
7.2 °C
25-03-2010  05:43:01
24.1 °C
25-03-2010  16:19:02
14.27 °C
Abs-Feuchte
(Aussen-T/F)
3.93 g/m*3
25-03-2010  13:19:01
7.61 g/m*3
25-03-2010  09:19:01
5.81 g/m*3
Windchill
(Aussen-T/F)
7.2 C
25-03-2010  05:43:01
24.1 C
25-03-2010  16:19:02
14.15 C

Die Daten stammen von einer Davis Vantage Pro 2 Wetter-Station und werden unter Linux mit der Software wview2wettercgi und aufbereitet. Alle Angaben erfolgen ohne Gewähr für ihre Vollständigkeit oder Richtigkeit.
Kontakt: Rainer Krienke krienke@uni-koblenz.de . Meine Webseiten an der Uni Koblenz oder privat.
Version: $Revision: 0.78 $